Location: Izdebno
(52.6670°N, 16.2170°E)
Time: 22:39:28
(UTC+02:00)

Vanguard 2 Rocket - Pass Details

Date: 01 March 2024
Orbit: 555 x 3307 km, 32.9° (Epoch: 21 April)

Event Time Altitude Azimuth Distance (km) Brightness Sun altitude
Rises 13:56:23 0° 226° (SW) 3,905 11.3 25.7°
Reaches altitude 10° 13:59:20 10° 212° (SSW) 3,285 11.7 25.5°
Maximum altitude 14:05:47 24° 163° (SSE) 3,068 10.4 25.0°
Drops below altitude 10° 14:15:10 10° 118° (ESE) 4,965 10.7 24.2°
Sets 14:21:02 0° 107° (ESE) 6,460 11.1 23.7°
